Location: Newark
(49.8348°N, 24.0280°E)
Time: 14:25:38
(UTC+00:00)

Transit 2A - Pass Details

Date: 24 January 2020
Orbit: 600 x 959 km, 66.7° (Epoch: 22 February)

Event Time Altitude Azimuth Distance (km) Brightness Sun altitude
Rises 01:58:20 0° 326° (NW) 2,923 - -39.7°
Reaches altitude 10° 02:00:42 10° 336° (NNW) 2,049 - -39.4°
Maximum altitude 02:04:58 36° 43° (NE) 1,083 - -38.7°
Exits shadow 02:08:16 17° 102° (ESE) 1,767 8.4 -38.2°
Drops below altitude 10° 02:09:35 10° 110° (ESE) 2,220 8.9 -38.0°
Sets 02:12:14 0° 119° (ESE) 3,203 9.8 -37.6°
